Total_Precipitation_Accumulation
0.07 0.07 0.17 0.16 0.13 0.14 0.15 0.18 0.22 0.25 0.25 0.23 0.21 0.21 0.22 0.22 0.26 0.29 0.28 0.30 0.30 0.33 0.37 0.40 0.41 0.41 0.40 0.39 0.39 0.37 0.35 0.30 0.33 0.35 0.38 0.37 0.50 0.73 0.94 1.06 1.11 0.76 0.64
0.02 0.05 0.13 0.13 0.11 0.12 0.13 0.16 0.18 0.19 0.21 0.22 0.22 0.24 0.25 0.24 0.24 0.25 0.27 0.26 0.27 0.27 0.28 0.29 0.27 0.27 0.29 0.28 0.28 0.28 0.26 0.30 0.36 0.44 0.46 0.36 0.47 0.69 0.90 1.04 1.18 0.75 0.70
0.02 0.04 0.09 0.11 0.10 0.09 0.11 0.14 0.18 0.17 0.17 0.19 0.20 0.23 0.25 0.29 0.28 0.26 0.24 0.24 0.25 0.21 0.19 0.19 0.20 0.21 0.21 0.21 0.25 0.25 0.28 0.34 0.44 0.63 0.76 0.45 0.31 0.64 0.80 0.84 0.82 0.65 0.64
0.02 0.03 0.05 0.08 0.08 0.08 0.10 0.13 0.17 0.18 0.15 0.17 0.22 0.23 0.24 0.27 0.27 0.27 0.27 0.27 0.24 0.19 0.17 0.16 0.18 0.19 0.18 0.16 0.18 0.20 0.27 0.35 0.54 0.88 1.09 0.59 0.25 0.48 0.71 0.68 0.58 0.55 0.53
0.04 0.07 0.07 0.08 0.08 0.07 0.09 0.12 0.16 0.19 0.17 0.19 0.24 0.23 0.23 0.25 0.27 0.26 0.30 0.31 0.28 0.22 0.18 0.17 0.16 0.15 0.13 0.13 0.13 0.18 0.27 0.38 0.59 0.82 0.75 0.64 0.52 0.52 0.60 0.57 0.53 0.57 0.51
0.05 0.10 0.10 0.09 0.08 0.07 0.07 0.09 0.13 0.16 0.18 0.21 0.24 0.24 0.26 0.30 0.30 0.25 0.29 0.29 0.28 0.24 0.21 0.22 0.19 0.13 0.12 0.13 0.16 0.21 0.30 0.46 0.61 0.53 0.45 0.53 0.52 0.51 0.55 0.62 0.66 0.70 0.62
0.05 0.07 0.09 0.11 0.10 0.10 0.09 0.10 0.12 0.15 0.18 0.19 0.22 0.28 0.30 0.31 0.32 0.31 0.27 0.25 0.23 0.20 0.19 0.24 0.24 0.21 0.18 0.19 0.23 0.29 0.35 0.50 0.56 0.40 0.46 0.62 0.52 0.45 0.55 0.74 0.89 0.86 0.76
0.07 0.09 0.13 0.15 0.13 0.12 0.12 0.13 0.15 0.17 0.19 0.19 0.21 0.24 0.25 0.24 0.26 0.29 0.27 0.26 0.23 0.23 0.25 0.24 0.24 0.26 0.30 0.28 0.28 0.32 0.40 0.47 0.44 0.39 0.39 0.50 0.40 0.43 0.59 0.76 0.89 0.89 0.84
0.18 0.16 0.18 0.21 0.22 0.20 0.20 0.22 0.23 0.23 0.22 0.21 0.23 0.26 0.25 0.25 0.27 0.27 0.26 0.26 0.25 0.26 0.27 0.27 0.24 0.24 0.29 0.30 0.29 0.35 0.43 0.53 0.55 0.54 0.45 0.51 0.50 0.60 0.72 0.83 0.92 0.93 0.88
0.49 0.34 0.31 0.36 0.43 0.36 0.29 0.29 0.29 0.29 0.28 0.28 0.30 0.32 0.34 0.34 0.35 0.38 0.36 0.35 0.34 0.34 0.34 0.33 0.30 0.31 0.33 0.33 0.37 0.45 0.52 0.53 0.48 0.53 0.66 0.56 0.58 0.78 1.00 1.09 1.11 1.13 1.06
0.77 0.54 0.42 0.38 0.48 0.53 0.46 0.38 0.41 0.42 0.40 0.42 0.51 0.52 0.59 0.70 0.69 0.71 0.60 0.62 0.63 0.65 0.64 0.62 0.56 0.53 0.47 0.43 0.54 0.69 0.63 0.60 0.60 0.66 0.69 0.62 0.67 0.93 1.21 1.31 1.33 1.38 1.31
0.97 0.74 0.61 0.52 0.47 0.52 0.54 0.66 0.76 0.75 0.74 0.79 0.94 0.96 1.14 1.22 1.13 0.82 0.85 1.07 1.25 1.30 1.23 1.22 1.18 0.98 0.84 0.80 1.29 1.31 0.74 0.76 0.84 0.87 0.75 0.70 0.87 1.19 1.56 1.53 1.49 1.55 1.51
1.29 0.98 0.77 0.71 0.71 0.69 0.80 0.80 0.92 1.09 1.22 1.21 1.18 1.31 1.49 1.38 1.13 0.98 1.08 1.28 1.46 1.56 1.69 1.95 1.96 1.62 1.61 1.67 1.72 1.41 0.85 0.95 1.23 1.15 1.17 1.18 1.35 1.61 1.92 1.86 1.68 1.57 1.54
1.43 1.30 1.15 1.03 1.02 1.06 0.98 1.06 1.08 1.09 1.17 1.22 1.36 1.44 1.57 1.64 1.54 1.44 1.54 1.61 1.78 1.91 2.27 2.27 2.37 2.25 2.04 1.78 1.61 1.40 1.22 1.21 1.36 1.51 1.67 1.45 1.53 1.85 2.29 2.30 1.99 1.82 1.69
1.88 1.69 1.50 1.48 1.50 1.44 1.39 1.41 1.28 1.27 1.27 1.35 1.49 1.65 1.73 1.79 1.75 1.75 1.82 1.88 1.72 1.84 2.13 2.38 2.30 2.46 2.46 2.23 1.89 1.71 1.57 1.58 1.57 1.68 1.92 1.84 1.82 1.91 2.23 2.45 2.39 2.23 2.09
2.24 1.96 1.80 1.75 1.80 1.85 1.78 1.80 1.74 1.49 1.51 1.49 1.67 1.74 1.85 1.91 1.97 2.05 2.05 2.00 1.81 1.82 2.07 2.31 2.25 2.54 2.45 2.42 2.05 1.89 1.71 1.65 1.48 1.54 1.83 1.97 1.86 1.77 1.95 2.41 2.65 2.55 2.45
2.72 2.49 2.25 2.12 2.26 2.42 2.43 2.33 2.15 1.92 1.71 1.72 1.82 1.86 1.94 1.95 2.10 2.09 2.02 1.98 1.96 1.94 2.13 2.24 2.30 2.46 2.29 2.19 2.12 2.02 1.88 1.82 1.63 1.56 1.74 1.95 1.84 1.75 1.86 2.22 2.60 2.68 2.60
2.95 2.87 2.52 2.31 2.70 3.00 2.96 2.83 2.62 2.31 2.04 1.90 1.94 1.91 1.97 2.01 2.12 2.26 2.04 1.93 2.16 2.16 2.29 2.53 2.51 2.65 2.73 2.62 2.34 2.03 1.83 1.89 1.66 1.58 1.68 1.88 2.05 1.77 1.91 2.21 2.50 2.58 2.72
3.12 3.07 2.90 2.91 3.01 3.14 3.21 3.24 2.97 2.70 2.40 2.12 1.99 1.91 1.92 2.01 2.22 2.52 2.33 2.32 2.36 2.36 2.38 2.13 2.64 2.94 2.95 2.78 2.35 2.07 1.80 1.73 1.61 1.51 1.59 1.54 1.71 1.79 1.78 1.90 2.21 2.28 2.62
3.27 3.35 3.19 3.23 3.36 3.61 3.81 3.88 3.48 3.04 2.68 2.39 2.18 2.13 2.14 2.34 2.49 2.69 2.46 2.41 2.42 2.51 2.47 2.53 2.90 2.88 2.67 2.66 2.15 1.83 1.71 1.49 1.46 1.40 1.28 1.34 1.42 1.39 1.53 1.68 1.97 1.69 1.97
3.47 3.59 3.53 3.68 4.00 4.28 4.11 3.75 3.51 3.16 2.89 2.69 2.45 2.30 2.29 2.28 2.42 2.64 2.46 2.63 2.53 2.42 2.41 2.52 2.77 2.78 2.51 2.71 2.59 2.08 1.60 1.23 1.23 1.15 1.17 1.28 1.28 1.40 1.55 1.69 1.91 1.92 1.88
3.50 3.91 3.96 4.08 4.38 4.47 4.23 4.05 3.86 3.63 3.21 3.07 2.91 2.67 2.32 2.18 2.27 2.33 2.55 2.37 2.35 2.41 2.38 2.51 2.69 2.53 2.20 2.63 2.77 2.70 2.07 1.63 1.22 0.99 1.23 1.33 1.34 1.49 1.49 1.55 1.81 2.06 2.02
2.80 3.04 3.29 3.71 4.17 4.24 4.24 4.16 4.09 4.01 3.47 3.20 2.97 2.69 2.39 2.20 2.13 2.20 2.31 2.32 2.26 2.21 2.22 2.40 2.47 2.43 2.30 2.41 2.59 2.84 2.52 1.98 1.55 1.14 1.06 1.18 1.41 1.56 1.52 1.55 1.61 1.79 1.84
2.11 2.39 2.75 3.16 3.46 3.65 3.76 3.72 3.68 3.51 3.26 3.13 2.93 2.54 2.27 2.09 2.03 2.06 2.09 2.07 2.08 2.03 2.06 1.97 2.06 2.40 2.49 2.28 2.40 2.42 2.37 2.26 2.04 1.53 1.20 1.13 1.23 1.33 1.45 1.37 1.33 1.53 1.72
1.97 2.27 2.53 2.79 3.05 3.20 3.24 3.24 3.23 3.06 2.90 2.82 2.67 2.38 2.14 1.99 1.87 1.72 1.75 1.92 1.94 1.87 1.83 1.84 1.98 2.09 2.11 2.09 2.19 2.28 2.29 2.22 2.00 1.76 1.39 1.18 1.09 1.00 1.11 1.18 1.23 1.32 1.43
2.03 2.37 2.60 2.80 3.00 3.04 2.82 2.68 2.62 2.61 2.57 2.44 2.26 2.07 1.86 1.74 1.63 1.49 1.55 1.69 1.71 1.71 1.71 1.67 1.72 1.81 1.88 1.93 2.00 2.07 2.10 2.01 1.94 1.94 1.58 1.31 1.17 0.88 0.89 0.99 1.06 1.12 1.22